Time,TemperatureF,DewpointF,PressureIn,WindDirection,WindDirectionDegrees,WindSpeedMPH,WindSpeedGustMPH,Humidity,HourlyPrecipIn,Conditions,Clouds,dailyrainin,SoftwareType,DateUTC
2013-12-22 00:03:00,23.0,19.0,26.83,NNW,341,9.0,10.0,89,0.00,,,-99.99,,2013-12-22 06:03:00,
2013-12-22 00:18:00,23.0,19.0,26.84,North,4,10.0,12.0,89,0.00,,,-99.99,,2013-12-22 06:18:00,
2013-12-22 00:23:00,22.0,19.0,26.85,NNW,345,10.0,11.0,88,0.00,,,-99.99,,2013-12-22 06:23:00,
2013-12-22 00:28:00,22.0,19.0,26.85,NNW,348,10.0,12.0,88,0.00,,,-99.99,,2013-12-22 06:28:00,
2013-12-22 00:38:00,22.0,19.0,26.86,NNW,345,11.0,12.0,88,0.00,,,-99.99,,2013-12-22 06:38:00,
2013-12-22 00:43:00,22.0,19.0,26.86,NNW,344,10.0,11.0,88,0.00,,,-99.99,,2013-12-22 06:43:00,
2013-12-22 00:58:00,22.0,19.0,26.86,NNW,347,12.0,13.0,88,0.00,,,-99.99,,2013-12-22 06:58:00,
2013-12-22 01:03:00,22.0,19.0,26.86,NNW,344,11.0,13.0,88,0.00,,,-99.99,,2013-12-22 07:03:00,
2013-12-22 01:08:00,22.0,19.0,26.87,North,353,13.0,14.0,88,0.00,,,-99.99,,2013-12-22 07:08:00,
2013-12-22 01:18:00,22.0,19.0,26.87,NNW,347,12.0,13.0,89,0.00,,,-99.99,,2013-12-22 07:18:00,
2013-12-22 01:23:00,22.0,19.0,26.87,North,357,10.0,11.0,89,0.00,,,-99.99,,2013-12-22 07:23:00,
2013-12-22 01:28:00,22.0,19.0,26.88,North,351,9.0,11.0,90,0.00,,,-99.99,,2013-12-22 07:28:00,
2013-12-22 01:38:00,22.0,19.0,26.88,North,351,8.0,9.0,90,0.00,,,-99.99,,2013-12-22 07:38:00,
2013-12-22 01:43:00,22.0,19.0,26.88,NNW,348,8.0,9.0,90,0.00,,,-99.99,,2013-12-22 07:43:00,
2013-12-22 01:48:00,22.0,19.0,26.88,NNW,343,9.0,10.0,89,0.00,,,-99.99,,2013-12-22 07:48:00,
2013-12-22 01:58:00,22.0,19.0,26.88,North,355,9.0,10.0,89,0.00,,,-99.99,,2013-12-22 07:58:00,
2013-12-22 02:03:00,22.0,19.0,26.88,North,350,9.0,10.0,89,0.00,,,-99.99,,2013-12-22 08:03:00,
2013-12-22 02:08:00,21.0,19.0,26.88,North,350,9.0,10.0,90,0.00,,,-99.99,,2013-12-22 08:08:00,
2013-12-22 02:23:00,21.0,19.0,26.89,NNW,347,7.0,8.0,90,0.00,,,-99.99,,2013-12-22 08:23:00,
2013-12-22 02:28:00,21.0,19.0,26.90,NNW,338,8.0,8.0,90,0.00,,,-99.99,,2013-12-22 08:28:00,
2013-12-22 02:43:00,19.0,16.0,26.91,NNW,340,7.0,8.0,90,0.00,,,-99.99,,2013-12-22 08:43:00,
2013-12-22 02:48:00,19.0,16.0,26.91,NNW,336,7.0,7.0,90,0.00,,,-99.99,,2013-12-22 08:48:00,
2013-12-22 03:03:00,18.0,16.0,26.91,NW,326,7.0,7.0,90,0.00,,,-99.99,,2013-12-22 09:03:00,
2013-12-22 03:08:00,18.0,16.0,26.92,NW,323,6.0,7.0,90,0.00,,,-99.99,,2013-12-22 09:08:00,
2013-12-22 03:23:00,17.0,14.0,26.93,NW,323,7.0,7.0,91,0.00,,,-99.99,,2013-12-22 09:23:00,
2013-12-22 03:28:00,17.0,14.0,26.93,NW,309,7.0,7.0,91,0.00,,,-99.99,,2013-12-22 09:28:00,
2013-12-22 03:33:00,18.0,16.0,26.93,NW,309,7.0,7.0,91,0.00,,,-99.99,,2013-12-22 09:33:00,
2013-12-22 03:43:00,18.0,16.0,26.94,NW,324,7.0,8.0,92,0.00,,,-99.99,,2013-12-22 09:43:00,
2013-12-22 03:48:00,18.0,16.0,26.94,NNW,329,7.0,8.0,92,0.00,,,-99.99,,2013-12-22 09:48:00,
2013-12-22 03:58:00,18.0,16.0,26.94,NW,321,7.0,8.0,92,0.00,,,-99.99,,2013-12-22 09:58:00,
2013-12-22 04:03:00,18.0,16.0,26.94,NW,321,8.0,8.0,92,0.00,,,-99.99,,2013-12-22 10:03:00,
2013-12-22 04:18:00,18.0,16.0,26.94,WNW,303,6.0,7.0,92,0.00,,,-99.99,,2013-12-22 10:18:00,
2013-12-22 04:23:00,18.0,16.0,26.94,NW,310,6.0,7.0,92,0.00,,,-99.99,,2013-12-22 10:23:00,
2013-12-22 04:33:00,18.0,16.0,26.94,NW,309,7.0,7.0,92,0.00,,,-99.99,,2013-12-22 10:33:00,
2013-12-22 04:38:00,17.0,16.0,26.94,NW,312,7.0,7.0,92,0.00,,,-99.99,,2013-12-22 10:38:00,
2013-12-22 04:53:00,17.0,16.0,26.95,NW,323,6.0,6.0,92,0.00,,,-99.99,,2013-12-22 10:53:00,
2013-12-22 04:58:00,16.0,14.0,26.94,NW,321,7.0,7.0,92,0.00,,,-99.99,,2013-12-22 10:58:00,
2013-12-22 05:08:00,15.0,14.0,26.95,NW,326,8.0,8.0,92,0.00,,,-99.99,,2013-12-22 11:08:00,
2013-12-22 05:13:00,15.0,14.0,26.95,NNW,327,8.0,8.0,92,0.00,,,-99.99,,2013-12-22 11:13:00,
2013-12-22 05:28:00,15.0,14.0,26.96,NW,314,6.0,7.0,93,0.00,,,-99.99,,2013-12-22 11:28:00,
2013-12-22 05:33:00,15.0,14.0,26.96,NW,324,5.0,6.0,93,0.00,,,-99.99,,2013-12-22 11:33:00,
2013-12-22 05:43:00,16.0,14.0,26.96,NNW,327,7.0,8.0,93,0.00,,,-99.99,,2013-12-22 11:43:00,
2013-12-22 05:48:00,17.0,16.0,26.96,NW,321,8.0,8.0,93,0.00,,,-99.99,,2013-12-22 11:48:00,
2013-12-22 05:58:00,18.0,16.0,26.96,NNW,329,7.0,8.0,93,0.00,,,-99.99,,2013-12-22 11:58:00,
2013-12-22 06:03:00,17.0,16.0,26.96,NW,321,7.0,7.0,93,0.00,,,-99.99,,2013-12-22 12:03:00,
2013-12-22 06:13:00,17.0,16.0,26.96,NW,316,5.0,5.0,93,0.00,,,-99.99,,2013-12-22 12:13:00,
2013-12-22 06:18:00,16.0,14.0,26.96,NW,316,5.0,5.0,93,0.00,,,-99.99,,2013-12-22 12:18:00,
2013-12-22 06:33:00,16.0,14.0,26.96,NW,317,6.0,6.0,94,0.00,,,-99.99,,2013-12-22 12:33:00,
2013-12-22 06:38:00,16.0,14.0,26.97,NW,310,7.0,7.0,93,0.00,,,-99.99,,2013-12-22 12:38:00,
2013-12-22 06:48:00,15.0,14.0,26.98,WNW,296,7.0,8.0,93,0.00,,,-99.99,,2013-12-22 12:48:00,
2013-12-22 06:53:00,15.0,14.0,26.98,NW,305,6.0,6.0,93,0.00,,,-99.99,,2013-12-22 12:53:00,
2013-12-22 07:03:00,15.0,14.0,26.98,WNW,295,6.0,7.0,94,0.00,,,-99.99,,2013-12-22 13:03:00,
2013-12-22 07:08:00,15.0,14.0,26.98,West,276,6.0,7.0,94,0.00,,,-99.99,,2013-12-22 13:08:00,
2013-12-22 07:28:00,16.0,14.0,26.99,West,276,5.0,6.0,93,0.00,,,-99.99,,2013-12-22 13:28:00,
2013-12-22 07:33:00,16.0,14.0,26.99,West,269,5.0,7.0,93,0.00,,,-99.99,,2013-12-22 13:33:00,
2013-12-22 07:38:00,16.0,14.0,26.99,West,276,6.0,7.0,94,0.00,,,-99.99,,2013-12-22 13:38:00,
2013-12-22 07:43:00,15.0,14.0,26.99,West,279,6.0,8.0,93,0.00,,,-99.99,,2013-12-22 13:43:00,
2013-12-22 07:53:00,15.0,14.0,27.00,WNW,286,5.0,6.0,94,0.00,,,-99.99,,2013-12-22 13:53:00,
2013-12-22 07:58:00,15.0,14.0,27.00,WNW,283,5.0,5.0,94,0.00,,,-99.99,,2013-12-22 13:58:00,
2013-12-22 08:13:00,16.0,14.0,27.01,NNW,330,6.0,7.0,94,0.00,,,-99.99,,2013-12-22 14:13:00,
2013-12-22 08:18:00,16.0,14.0,27.01,NNW,337,7.0,8.0,94,0.00,,,-99.99,,2013-12-22 14:18:00,
2013-12-22 08:28:00,16.0,14.0,27.02,NNW,329,11.0,12.0,94,0.00,,,-99.99,,2013-12-22 14:28:00,
2013-12-22 08:33:00,16.0,14.0,27.02,NNW,327,10.0,10.0,94,0.00,,,-99.99,,2013-12-22 14:33:00,
2013-12-22 08:43:00,16.0,14.0,27.02,NNW,327,9.0,9.0,94,0.00,,,-99.99,,2013-12-22 14:43:00,
2013-12-22 08:48:00,16.0,14.0,27.02,NNW,329,9.0,9.0,94,0.00,,,-99.99,,2013-12-22 14:48:00,
2013-12-22 08:53:00,16.0,14.0,27.03,NNW,329,8.0,9.0,94,0.00,,,-99.99,,2013-12-22 14:53:00,
2013-12-22 09:03:00,18.0,18.0,27.03,NW,314,8.0,9.0,95,0.00,,,-99.99,,2013-12-22 15:03:00,
2013-12-22 09:08:00,19.0,18.0,27.02,NW,314,8.0,9.0,95,0.00,,,-99.99,,2013-12-22 15:08:00,
2013-12-22 09:23:00,20.0,19.0,27.03,NW,323,8.0,9.0,95,0.00,,,-99.99,,2013-12-22 15:23:00,
2013-12-22 09:28:00,21.0,19.0,27.03,NNW,329,7.0,9.0,95,0.00,,,-99.99,,2013-12-22 15:28:00,
2013-12-22 09:43:00,22.0,19.0,27.04,NW,316,10.0,11.0,93,0.00,,,-99.99,,2013-12-22 15:43:00,
2013-12-22 09:48:00,22.0,19.0,27.04,WNW,298,11.0,13.0,93,0.00,,,-99.99,,2013-12-22 15:48:00,
2013-12-22 09:53:00,23.0,21.0,27.05,NW,309,10.0,12.0,93,0.00,,,-99.99,,2013-12-22 15:53:00,
2013-12-22 10:03:00,23.0,21.0,27.05,NW,306,12.0,14.0,93,0.00,,,-99.99,,2013-12-22 16:03:00,
2013-12-22 10:08:00,24.0,23.0,27.05,NW,314,11.0,12.0,93,0.00,,,-99.99,,2013-12-22 16:08:00,
2013-12-22 10:13:00,24.0,23.0,27.06,NNW,338,12.0,14.0,93,0.00,,,-99.99,,2013-12-22 16:13:00,
2013-12-22 10:18:00,24.0,23.0,27.05,NNW,333,12.0,13.0,93,0.00,,,-99.99,,2013-12-22 16:18:00,
2013-12-22 10:23:00,24.0,21.0,27.06,NNW,334,11.0,12.0,92,0.00,,,-99.99,,2013-12-22 16:23:00,
2013-12-22 10:28:00,24.0,21.0,27.06,NNW,345,11.0,12.0,92,0.00,,,-99.99,,2013-12-22 16:28:00,
2013-12-22 10:33:00,24.0,21.0,27.06,NNW,344,11.0,13.0,92,0.00,,,-99.99,,2013-12-22 16:33:00,
2013-12-22 10:38:00,25.0,23.0,27.06,NNW,343,9.0,11.0,92,0.00,,,-99.99,,2013-12-22 16:38:00,
2013-12-22 10:43:00,25.0,23.0,27.06,NNW,334,10.0,11.0,91,0.00,,,-99.99,,2013-12-22 16:43:00,
2013-12-22 10:48:00,25.0,23.0,27.06,NW,323,9.0,11.0,91,0.00,,,-99.99,,2013-12-22 16:48:00,
2013-12-22 10:58:00,25.0,23.0,27.06,NNW,345,10.0,11.0,90,0.00,,,-99.99,,2013-12-22 16:58:00,
2013-12-22 11:03:00,26.0,23.0,27.06,North,351,8.0,13.0,90,0.00,,,-99.99,,2013-12-22 17:03:00,
2013-12-22 11:08:00,26.0,23.0,27.06,NW,320,9.0,12.0,90,0.00,,,-99.99,,2013-12-22 17:08:00,
2013-12-22 11:13:00,26.0,23.0,27.06,NW,320,9.0,10.0,90,0.00,,,-99.99,,2013-12-22 17:13:00,
2013-12-22 11:18:00,26.0,23.0,27.06,NW,306,8.0,10.0,88,0.00,,,-99.99,,2013-12-22 17:18:00,
2013-12-22 11:23:00,26.0,23.0,27.05,NW,316,8.0,9.0,89,0.00,,,-99.99,,2013-12-22 17:23:00,
2013-12-22 11:28:00,27.0,25.0,27.05,NW,307,6.0,9.0,88,0.00,,,-99.99,,2013-12-22 17:28:00,
2013-12-22 11:33:00,27.0,25.0,27.05,NW,313,10.0,12.0,88,0.00,,,-99.99,,2013-12-22 17:33:00,
2013-12-22 11:43:00,28.0,25.0,27.05,WNW,293,11.0,13.0,85,0.00,,,-99.99,,2013-12-22 17:43:00,
2013-12-22 11:48:00,28.0,25.0,27.05,WNW,303,11.0,13.0,85,0.00,,,-99.99,,2013-12-22 17:48:00,
2013-12-22 11:53:00,28.0,25.0,27.06,WNW,289,9.0,11.0,85,0.00,,,-99.99,,2013-12-22 17:53:00,
2013-12-22 12:08:00,30.0,25.0,27.05,NW,314,11.0,14.0,82,0.00,,,-99.99,,2013-12-22 18:08:00,
2013-12-22 12:13:00,30.0,25.0,27.05,NW,324,11.0,13.0,83,0.00,,,-99.99,,2013-12-22 18:13:00,
2013-12-22 12:18:00,30.0,25.0,27.04,NW,312,8.0,10.0,82,0.00,,,-99.99,,2013-12-22 18:18:00,
2013-12-22 12:23:00,31.0,27.0,27.04,NW,319,7.0,9.0,82,0.00,,,-99.99,,2013-12-22 18:23:00,
2013-12-22 12:38:00,31.0,25.0,27.03,WNW,300,10.0,13.0,79,0.00,,,-99.99,,2013-12-22 18:38:00,
2013-12-22 12:43:00,31.0,25.0,27.03,WNW,288,10.0,12.0,80,0.00,,,-99.99,,2013-12-22 18:43:00,
2013-12-22 12:48:00,31.0,25.0,27.03,NW,326,7.0,9.0,79,0.00,,,-99.99,,2013-12-22 18:48:00,
2013-12-22 12:53:00,32.0,27.0,27.03,North,0,0.0,0.0,78,0.00,,,-99.99,,2013-12-22 18:53:00,
2013-12-22 13:03:00,32.0,25.0,27.03,NW,321,10.0,12.0,77,0.00,,,-99.99,,2013-12-22 19:03:00,
2013-12-22 13:08:00,33.0,27.0,27.03,NW,326,11.0,13.0,76,0.00,,,-99.99,,2013-12-22 19:08:00,
2013-12-22 13:13:00,33.0,27.0,27.02,NW,306,10.0,12.0,76,0.00,,,-99.99,,2013-12-22 19:13:00,
2013-12-22 13:28:00,33.0,27.0,27.02,NW,312,7.0,9.0,75,0.00,,,-99.99,,2013-12-22 19:28:00,
2013-12-22 13:33:00,33.0,27.0,27.02,NNW,329,9.0,10.0,75,0.00,,,-99.99,,2013-12-22 19:33:00,
2013-12-22 13:38:00,33.0,27.0,27.01,NW,306,8.0,9.0,75,0.00,,,-99.99,,2013-12-22 19:38:00,
2013-12-22 13:43:00,34.0,27.0,27.01,NW,312,8.0,11.0,74,0.00,,,-99.99,,2013-12-22 19:43:00,
2013-12-22 13:58:00,34.0,27.0,27.01,WNW,286,6.0,8.0,73,0.00,,,-99.99,,2013-12-22 19:58:00,
2013-12-22 14:03:00,34.0,27.0,27.00,West,279,10.0,13.0,72,0.00,,,-99.99,,2013-12-22 20:03:00,
2013-12-22 14:08:00,34.0,27.0,27.00,NW,309,8.0,10.0,73,0.00,,,-99.99,,2013-12-22 20:08:00,
2013-12-22 14:13:00,34.0,27.0,27.00,West,262,6.0,9.0,72,0.00,,,-99.99,,2013-12-22 20:13:00,
2013-12-22 14:18:00,35.0,27.0,27.00,West,266,6.0,9.0,71,0.00,,,-99.99,,2013-12-22 20:18:00,
2013-12-22 14:23:00,35.0,27.0,27.00,North,0,0.0,0.0,72,0.00,,,-99.99,,2013-12-22 20:23:00,
2013-12-22 14:28:00,35.0,27.0,27.00,WNW,289,7.0,10.0,71,0.00,,,-99.99,,2013-12-22 20:28:00,
2013-12-22 14:33:00,35.0,27.0,27.00,North,350,8.0,11.0,70,0.00,,,-99.99,,2013-12-22 20:33:00,
2013-12-22 14:48:00,35.0,27.0,27.00,WNW,286,4.0,5.0,70,0.00,,,-99.99,,2013-12-22 20:48:00,
2013-12-22 14:53:00,35.0,27.0,27.00,WNW,289,8.0,10.0,69,0.00,,,-99.99,,2013-12-22 20:53:00,
2013-12-22 14:58:00,35.0,27.0,27.00,NW,314,7.0,8.0,69,0.00,,,-99.99,,2013-12-22 20:58:00,
2013-12-22 15:03:00,35.0,27.0,27.00,WNW,302,5.0,7.0,69,0.00,,,-99.99,,2013-12-22 21:03:00,
2013-12-22 15:13:00,36.0,27.0,26.99,NNW,333,6.0,7.0,68,0.00,,,-99.99,,2013-12-22 21:13:00,
2013-12-22 15:18:00,36.0,27.0,27.00,NNW,338,3.0,4.0,67,0.00,,,-99.99,,2013-12-22 21:18:00,
2013-12-22 15:28:00,36.0,27.0,27.00,North,0,0.0,0.0,67,0.00,,,-99.99,,2013-12-22 21:28:00,
2013-12-22 15:33:00,36.0,27.0,27.00,North,0,0.0,0.0,67,0.00,,,-99.99,,2013-12-22 21:33:00,
2013-12-22 15:38:00,36.0,27.0,26.99,North,0,0.0,0.0,66,0.00,,,-99.99,,2013-12-22 21:38:00,
2013-12-22 15:43:00,36.0,27.0,26.99,North,0,0.0,0.0,66,0.00,,,-99.99,,2013-12-22 21:43:00,
2013-12-22 15:48:00,36.0,27.0,27.00,North,0,0.0,0.0,66,0.00,,,-99.99,,2013-12-22 21:48:00,
2013-12-22 15:53:00,36.0,27.0,26.99,North,0,0.0,0.0,66,0.00,,,-99.99,,2013-12-22 21:53:00,
2013-12-22 15:58:00,36.0,25.0,26.99,North,0,0.0,0.0,65,0.00,,,-99.99,,2013-12-22 21:58:00,
2013-12-22 16:03:00,36.0,25.0,27.00,North,0,0.0,0.0,65,0.00,,,-99.99,,2013-12-22 22:03:00,
2013-12-22 16:08:00,36.0,25.0,27.00,North,0,0.0,0.0,65,0.00,,,-99.99,,2013-12-22 22:08:00,
2013-12-22 16:13:00,35.0,25.0,27.00,North,0,0.0,0.0,65,0.00,,,-99.99,,2013-12-22 22:13:00,
2013-12-22 16:18:00,35.0,25.0,27.00,North,0,0.0,0.0,65,0.00,,,-99.99,,2013-12-22 22:18:00,
2013-12-22 16:23:00,35.0,25.0,27.00,North,0,0.0,0.0,65,0.00,,,-99.99,,2013-12-22 22:23:00,
2013-12-22 16:28:00,35.0,25.0,27.01,North,0,0.0,0.0,65,0.00,,,-99.99,,2013-12-22 22:28:00,
2013-12-22 16:33:00,35.0,25.0,27.01,North,0,0.0,0.0,65,0.00,,,-99.99,,2013-12-22 22:33:00,
2013-12-22 16:38:00,35.0,25.0,27.01,North,0,0.0,0.0,65,0.00,,,-99.99,,2013-12-22 22:38:00,
2013-12-22 16:43:00,35.0,25.0,27.01,North,0,0.0,0.0,65,0.00,,,-99.99,,2013-12-22 22:43:00,
2013-12-22 16:48:00,35.0,25.0,27.01,North,0,0.0,0.0,65,0.00,,,-99.99,,2013-12-22 22:48:00,
2013-12-22 16:53:00,35.0,25.0,27.01,North,0,0.0,0.0,66,0.00,,,-99.99,,2013-12-22 22:53:00,
2013-12-22 16:58:00,35.0,25.0,27.00,North,0,0.0,0.0,66,0.00,,,-99.99,,2013-12-22 22:58:00,
2013-12-22 17:03:00,35.0,23.0,27.00,SE,138,6.0,6.0,62,0.00,,,-99.99,,2013-12-22 23:03:00,
2013-12-22 17:08:00,34.0,23.0,27.00,SE,141,7.0,7.0,63,0.00,,,-99.99,,2013-12-22 23:08:00,
2013-12-22 17:13:00,33.0,21.0,27.01,SE,140,6.0,7.0,62,0.00,,,-99.99,,2013-12-22 23:13:00,
2013-12-22 17:28:00,31.0,21.0,27.00,ESE,120,8.0,8.0,68,0.00,,,-99.99,,2013-12-22 23:28:00,
2013-12-22 17:33:00,31.0,21.0,27.00,SE,130,8.0,9.0,69,0.00,,,-99.99,,2013-12-22 23:33:00,
2013-12-22 17:38:00,30.0,21.0,27.01,ESE,123,8.0,9.0,70,0.00,,,-99.99,,2013-12-22 23:38:00,
2013-12-22 17:43:00,30.0,21.0,27.01,ESE,114,7.0,8.0,69,0.00,,,-99.99,,2013-12-22 23:43:00,
2013-12-22 17:58:00,30.0,21.0,27.01,ESE,107,8.0,9.0,70,0.00,,,-99.99,,2013-12-22 23:58:00,
2013-12-22 18:03:00,30.0,21.0,27.01,ESE,110,8.0,9.0,70,0.00,,,-99.99,,2013-12-23 00:03:00,
2013-12-22 18:08:00,30.0,21.0,27.01,ESE,111,8.0,9.0,70,0.00,,,-99.99,,2013-12-23 00:08:00,
2013-12-22 18:23:00,30.0,21.0,27.02,ESE,110,7.0,9.0,70,0.00,,,-99.99,,2013-12-23 00:23:00,
2013-12-22 18:28:00,30.0,21.0,27.01,ESE,102,8.0,9.0,72,0.00,,,-99.99,,2013-12-23 00:28:00,
2013-12-22 18:33:00,30.0,21.0,27.02,East,97,7.0,8.0,71,0.00,,,-99.99,,2013-12-23 00:33:00,
2013-12-22 18:48:00,30.0,23.0,27.03,East,99,10.0,13.0,73,0.00,,,-99.99,,2013-12-23 00:48:00,
2013-12-22 18:53:00,30.0,23.0,27.03,East,82,11.0,12.0,73,0.00,,,-99.99,,2013-12-23 00:53:00,
2013-12-22 18:58:00,30.0,23.0,27.04,East,96,10.0,12.0,74,0.00,,,-99.99,,2013-12-23 00:58:00,
2013-12-22 19:13:00,29.0,23.0,27.05,East,96,11.0,13.0,76,0.00,,,-99.99,,2013-12-23 01:13:00,
2013-12-22 19:18:00,29.0,23.0,27.05,East,94,11.0,13.0,76,0.00,,,-99.99,,2013-12-23 01:18:00,
2013-12-22 19:23:00,29.0,21.0,27.05,East,90,11.0,13.0,75,0.00,,,-99.99,,2013-12-23 01:23:00,
2013-12-22 19:38:00,29.0,23.0,27.06,East,89,11.0,13.0,76,0.00,,,-99.99,,2013-12-23 01:38:00,
2013-12-22 19:43:00,29.0,23.0,27.07,East,87,11.0,13.0,76,0.00,,,-99.99,,2013-12-23 01:43:00,
2013-12-22 19:48:00,29.0,23.0,27.07,East,89,13.0,16.0,77,0.00,,,-99.99,,2013-12-23 01:48:00,
2013-12-22 19:58:00,28.0,21.0,27.07,East,100,10.0,12.0,76,0.00,,,-99.99,,2013-12-23 01:58:00,
2013-12-22 20:03:00,28.0,21.0,27.08,East,99,10.0,11.0,77,0.00,,,-99.99,,2013-12-23 02:03:00,
2013-12-22 20:08:00,28.0,21.0,27.08,East,83,9.0,11.0,78,0.00,,,-99.99,,2013-12-23 02:08:00,
2013-12-22 20:18:00,28.0,21.0,27.08,ESE,113,9.0,11.0,77,0.00,,,-99.99,,2013-12-23 02:18:00,
2013-12-22 20:23:00,28.0,23.0,27.09,ESE,113,11.0,12.0,79,0.00,,,-99.99,,2013-12-23 02:23:00,
2013-12-22 20:28:00,27.0,21.0,27.09,East,96,10.0,12.0,78,0.00,,,-99.99,,2013-12-23 02:28:00,
2013-12-22 20:33:00,27.0,21.0,27.09,ESE,103,10.0,12.0,76,0.00,,,-99.99,,2013-12-23 02:33:00,
2013-12-22 20:43:00,27.0,21.0,27.10,East,97,9.0,11.0,79,0.00,,,-99.99,,2013-12-23 02:43:00,
2013-12-22 20:48:00,27.0,21.0,27.10,East,89,7.0,8.0,79,0.00,,,-99.99,,2013-12-23 02:48:00,
2013-12-22 20:53:00,27.0,21.0,27.10,East,87,8.0,10.0,80,0.00,,,-99.99,,2013-12-23 02:53:00,
2013-12-22 20:58:00,27.0,23.0,27.11,ENE,75,11.0,13.0,83,0.00,,,-99.99,,2013-12-23 02:58:00,
2013-12-22 21:08:00,26.0,23.0,27.11,East,99,12.0,14.0,88,0.00,,,-99.99,,2013-12-23 03:08:00,
2013-12-22 21:13:00,25.0,23.0,27.11,East,93,11.0,13.0,90,0.00,,,-99.99,,2013-12-23 03:13:00,
2013-12-22 21:18:00,25.0,23.0,27.11,East,93,10.0,13.0,91,0.00,,,-99.99,,2013-12-23 03:18:00,
2013-12-22 21:23:00,25.0,23.0,27.12,East,89,10.0,11.0,92,0.00,,,-99.99,,2013-12-23 03:23:00,
2013-12-22 21:28:00,24.0,21.0,27.12,ENE,75,11.0,13.0,92,0.00,,,-99.99,,2013-12-23 03:28:00,
2013-12-22 21:33:00,24.0,23.0,27.12,East,92,10.0,14.0,93,0.00,,,-99.99,,2013-12-23 03:33:00,
2013-12-22 21:38:00,24.0,23.0,27.12,ENE,68,11.0,13.0,93,0.00,,,-99.99,,2013-12-23 03:38:00,
2013-12-22 21:43:00,24.0,23.0,27.12,East,90,12.0,14.0,94,0.00,,,-99.99,,2013-12-23 03:43:00,
2013-12-22 21:53:00,23.0,21.0,27.13,ENE,66,15.0,18.0,95,0.00,,,-99.99,,2013-12-23 03:53:00,
2013-12-22 21:58:00,22.0,21.0,27.13,ENE,65,14.0,17.0,95,0.00,,,-99.99,,2013-12-23 03:58:00,
2013-12-22 22:03:00,22.0,21.0,27.14,ENE,76,17.0,19.0,96,0.00,,,-99.99,,2013-12-23 04:03:00,
2013-12-22 22:18:00,21.0,19.0,27.15,ENE,68,15.0,17.0,96,0.00,,,-99.99,,2013-12-23 04:18:00,
2013-12-22 22:23:00,21.0,19.0,27.16,ENE,63,14.0,17.0,97,0.00,,,-99.99,,2013-12-23 04:23:00,
2013-12-22 22:38:00,20.0,19.0,27.16,East,80,15.0,17.0,96,0.00,,,-99.99,,2013-12-23 04:38:00,
2013-12-22 22:43:00,20.0,19.0,27.17,ENE,68,15.0,17.0,97,0.00,,,-99.99,,2013-12-23 04:43:00,
2013-12-22 22:58:00,20.0,19.0,27.17,ENE,65,14.0,18.0,97,0.00,,,-99.99,,2013-12-23 04:58:00,
2013-12-22 23:03:00,20.0,19.0,27.18,ENE,62,15.0,17.0,97,0.00,,,-99.99,,2013-12-23 05:03:00,
2013-12-22 23:08:00,20.0,19.0,27.19,ENE,65,13.0,15.0,97,0.00,,,-99.99,,2013-12-23 05:08:00,
2013-12-22 23:18:00,20.0,19.0,27.19,ENE,73,11.0,13.0,97,0.00,,,-99.99,,2013-12-23 05:18:00,
2013-12-22 23:23:00,19.0,18.0,27.20,NE,52,11.0,12.0,97,0.00,,,-99.99,,2013-12-23 05:23:00,
2013-12-22 23:33:00,19.0,18.0,27.20,NE,42,12.0,15.0,97,0.00,,,-99.99,,2013-12-23 05:33:00,
2013-12-22 23:38:00,19.0,18.0,27.21,ENE,63,12.0,15.0,97,0.00,,,-99.99,,2013-12-23 05:38:00,
2013-12-22 23:43:00,19.0,18.0,27.21,ENE,62,10.0,12.0,97,0.00,,,-99.99,,2013-12-23 05:43:00,
2013-12-22 23:53:00,19.0,18.0,27.22,ENE,65,10.0,13.0,97,0.00,,,-99.99,,2013-12-23 05:53:00,
2013-12-22 23:58:00,19.0,19.0,27.22,ENE,61,12.0,14.0,98,0.00,,,-99.99,,2013-12-23 05:58:00,